Time,TemperatureF,DewpointF,PressureIn,WindDirection,WindDirectionDegrees,WindSpeedMPH,WindSpeedGustMPH,Humidity,HourlyPrecipIn,Conditions,Clouds,dailyrainin,SoftwareType,DateUTC
2013-11-29 00:01:00,23.5,20.5,30.47,West,277,0.0,7.0,88,0.00,,,0.00,VWS V14.01,2013-11-29 05:01:00,
2013-11-29 00:02:00,23.5,20.5,30.47,West,277,0.0,7.0,88,0.00,,,0.00,VWS V14.01,2013-11-29 05:02:00,
2013-11-29 00:03:00,23.5,20.5,30.47,West,277,0.0,7.0,88,0.00,,,0.00,VWS V14.01,2013-11-29 05:03:00,
2013-11-29 00:07:00,23.5,20.5,30.47,West,277,0.0,7.0,88,0.00,,,0.00,VWS V14.01,2013-11-29 05:07:00,
2013-11-29 00:12:00,23.3,20.3,30.47,West,277,0.0,7.0,88,0.00,,,0.00,VWS V14.01,2013-11-29 05:12:00,
2013-11-29 00:18:00,23.3,20.3,30.47,West,277,0.0,7.0,88,0.00,,,0.00,VWS V14.01,2013-11-29 05:18:00,
2013-11-29 00:23:00,23.3,20.3,30.47,West,277,0.0,7.0,88,0.00,,,0.00,VWS V14.01,2013-11-29 05:23:00,
2013-11-29 00:28:00,23.2,20.2,30.47,West,277,0.0,7.0,88,0.00,,,0.00,VWS V14.01,2013-11-29 05:28:00,
2013-11-29 00:33:00,23.2,20.5,30.47,West,277,0.0,7.0,89,0.00,,,0.00,VWS V14.01,2013-11-29 05:33:00,
2013-11-29 00:38:00,23.2,20.5,30.47,West,278,0.0,7.0,89,0.00,,,0.00,VWS V14.01,2013-11-29 05:38:00,
2013-11-29 00:43:00,23.2,20.5,30.47,West,277,0.0,7.0,89,0.00,,,0.00,VWS V14.01,2013-11-29 05:43:00,
2013-11-29 00:48:00,23.2,20.5,30.47,West,277,0.0,7.0,89,0.00,,,0.00,VWS V14.01,2013-11-29 05:48:00,
2013-11-29 00:53:00,23.0,20.2,30.47,West,277,0.0,7.0,89,0.00,,,0.00,VWS V14.01,2013-11-29 05:53:00,
2013-11-29 00:58:00,22.9,20.1,30.47,West,277,0.0,7.0,89,0.00,,,0.00,VWS V14.01,2013-11-29 05:58:00,
2013-11-29 01:03:00,22.9,20.1,30.47,West,277,0.0,7.0,89,0.00,,,0.00,VWS V14.01,2013-11-29 06:03:00,
2013-11-29 01:08:00,22.7,20.0,30.47,West,277,0.0,7.0,89,0.00,,,0.00,VWS V14.01,2013-11-29 06:08:00,
2013-11-29 01:13:00,22.7,20.0,30.47,West,278,0.0,7.0,89,0.00,,,0.00,VWS V14.01,2013-11-29 06:13:00,
2013-11-29 01:18:00,22.5,19.8,30.47,West,277,0.0,7.0,89,0.00,,,0.00,VWS V14.01,2013-11-29 06:18:00,
2013-11-29 01:23:00,22.7,20.2,30.47,West,277,0.0,7.0,90,0.00,,,0.00,VWS V14.01,2013-11-29 06:23:00,
2013-11-29 01:28:00,22.7,20.2,30.47,West,277,0.0,7.0,90,0.00,,,0.00,VWS V14.01,2013-11-29 06:28:00,
2013-11-29 01:33:00,22.5,20.0,30.47,West,277,0.0,7.0,90,0.00,,,0.00,VWS V14.01,2013-11-29 06:33:00,
2013-11-29 01:38:00,22.7,20.2,30.47,West,277,0.0,7.0,90,0.00,,,0.00,VWS V14.01,2013-11-29 06:38:00,
2013-11-29 01:43:00,22.7,20.2,30.47,West,277,0.0,7.0,90,0.00,,,0.00,VWS V14.01,2013-11-29 06:43:00,
2013-11-29 01:48:00,22.5,20.0,30.47,West,277,0.0,7.0,90,0.00,,,0.00,VWS V14.01,2013-11-29 06:48:00,
2013-11-29 01:54:00,22.5,20.0,30.47,West,277,0.0,7.0,90,0.00,,,0.00,VWS V14.01,2013-11-29 06:54:00,
2013-11-29 01:59:00,22.5,20.0,30.47,West,278,0.0,7.0,90,0.00,,,0.00,VWS V14.01,2013-11-29 06:59:00,
2013-11-29 02:04:00,22.5,20.0,30.47,West,277,0.0,7.0,90,0.00,,,0.00,VWS V14.01,2013-11-29 07:04:00,
2013-11-29 02:09:00,22.4,19.9,30.47,West,277,0.0,7.0,90,0.00,,,0.00,VWS V14.01,2013-11-29 07:09:00,
2013-11-29 02:14:00,22.4,19.9,30.47,West,278,0.0,7.0,90,0.00,,,0.00,VWS V14.01,2013-11-29 07:14:00,
2013-11-29 02:19:00,22.4,19.9,30.48,West,277,0.0,7.0,90,0.00,,,0.00,VWS V14.01,2013-11-29 07:19:00,
2013-11-29 02:24:00,22.4,19.9,30.48,West,277,0.0,7.0,90,0.00,,,0.00,VWS V14.01,2013-11-29 07:24:00,
2013-11-29 02:29:00,22.4,19.9,30.48,West,277,0.0,7.0,90,0.00,,,0.00,VWS V14.01,2013-11-29 07:29:00,
2013-11-29 02:34:00,22.2,19.7,30.48,West,277,0.0,7.0,90,0.00,,,0.00,VWS V14.01,2013-11-29 07:34:00,
2013-11-29 02:39:00,22.4,20.2,30.48,West,277,0.0,7.0,91,0.00,,,0.00,VWS V14.01,2013-11-29 07:39:00,
2013-11-29 02:44:00,22.4,20.2,30.48,West,277,0.0,7.0,91,0.00,,,0.00,VWS V14.01,2013-11-29 07:44:00,
2013-11-29 02:49:00,22.2,20.0,30.48,West,277,0.0,7.0,91,0.00,,,0.00,VWS V14.01,2013-11-29 07:49:00,
2013-11-29 02:54:00,22.2,20.0,30.48,West,277,0.0,7.0,91,0.00,,,0.00,VWS V14.01,2013-11-29 07:54:00,
2013-11-29 02:59:00,22.2,20.0,30.48,West,277,0.0,7.0,91,0.00,,,0.00,VWS V14.01,2013-11-29 07:59:00,
2013-11-29 03:04:00,22.2,19.7,30.48,West,277,0.0,7.0,90,0.00,,,0.00,VWS V14.01,2013-11-29 08:04:00,
2013-11-29 03:09:00,22.1,19.9,30.48,West,278,0.0,7.0,91,0.00,,,0.00,VWS V14.01,2013-11-29 08:09:00,
2013-11-29 03:14:00,22.1,19.9,30.48,West,277,0.0,7.0,91,0.00,,,0.00,VWS V14.01,2013-11-29 08:14:00,
2013-11-29 03:19:00,22.1,19.9,30.48,West,277,0.0,7.0,91,0.00,,,0.00,VWS V14.01,2013-11-29 08:19:00,
2013-11-29 03:24:00,22.1,19.9,30.48,West,277,0.0,7.0,91,0.00,,,0.00,VWS V14.01,2013-11-29 08:24:00,
2013-11-29 03:29:00,21.9,19.4,30.48,West,277,0.0,7.0,90,0.00,,,0.00,VWS V14.01,2013-11-29 08:29:00,
2013-11-29 03:35:00,21.9,19.4,30.48,West,277,0.0,7.0,90,0.00,,,0.00,VWS V14.01,2013-11-29 08:35:00,
2013-11-29 03:40:00,21.9,19.4,30.48,West,277,0.0,7.0,90,0.00,,,0.00,VWS V14.01,2013-11-29 08:40:00,
2013-11-29 03:45:00,21.8,19.3,30.48,West,277,0.0,7.0,90,0.00,,,0.00,VWS V14.01,2013-11-29 08:45:00,
2013-11-29 03:50:00,21.8,19.6,30.48,West,277,0.0,7.0,91,0.00,,,0.00,VWS V14.01,2013-11-29 08:50:00,
2013-11-29 03:55:00,21.8,19.6,30.48,West,277,0.0,7.0,91,0.00,,,0.00,VWS V14.01,2013-11-29 08:55:00,
2013-11-29 04:00:00,21.6,19.4,30.48,West,277,0.0,7.0,91,0.00,,,0.00,VWS V14.01,2013-11-29 09:00:00,
2013-11-29 04:05:00,21.6,19.4,30.48,West,277,0.0,7.0,91,0.00,,,0.00,VWS V14.01,2013-11-29 09:05:00,
2013-11-29 04:10:00,21.6,19.4,30.48,West,277,0.0,7.0,91,0.00,,,0.00,VWS V14.01,2013-11-29 09:10:00,
2013-11-29 04:15:00,21.6,19.4,30.48,West,277,0.0,7.0,91,0.00,,,0.00,VWS V14.01,2013-11-29 09:15:00,
2013-11-29 04:20:00,21.8,19.6,30.48,West,277,0.0,7.0,91,0.00,,,0.00,VWS V14.01,2013-11-29 09:20:00,
2013-11-29 04:25:00,21.8,19.6,30.48,West,277,0.0,7.0,91,0.00,,,0.00,VWS V14.01,2013-11-29 09:25:00,
2013-11-29 04:30:00,21.6,19.4,30.48,West,277,0.0,7.0,91,0.00,,,0.00,VWS V14.01,2013-11-29 09:30:00,
2013-11-29 04:35:00,21.4,19.2,30.48,West,277,0.0,7.0,91,0.00,,,0.00,VWS V14.01,2013-11-29 09:35:00,
2013-11-29 04:40:00,21.4,19.2,30.48,West,277,0.0,7.0,91,0.00,,,0.00,VWS V14.01,2013-11-29 09:40:00,
2013-11-29 04:45:00,21.4,19.2,30.48,West,277,0.0,7.0,91,0.00,,,0.00,VWS V14.01,2013-11-29 09:45:00,
2013-11-29 04:50:00,21.6,19.4,30.49,West,277,0.0,7.0,91,0.00,,,0.00,VWS V14.01,2013-11-29 09:50:00,
2013-11-29 04:55:00,21.6,19.4,30.49,West,277,0.0,7.0,91,0.00,,,0.00,VWS V14.01,2013-11-29 09:55:00,
2013-11-29 05:00:00,21.6,19.4,30.49,West,277,0.0,7.0,91,0.00,,,0.00,VWS V14.01,2013-11-29 10:00:00,
2013-11-29 05:05:00,21.4,19.2,30.49,West,277,0.0,7.0,91,0.00,,,0.00,VWS V14.01,2013-11-29 10:05:00,
2013-11-29 05:11:00,21.3,19.1,30.49,West,278,0.0,7.0,91,0.00,,,0.00,VWS V14.01,2013-11-29 10:11:00,
2013-11-29 05:16:00,21.3,19.1,30.49,West,277,0.0,7.0,91,0.00,,,0.00,VWS V14.01,2013-11-29 10:16:00,
2013-11-29 05:21:00,21.3,19.1,30.51,West,277,0.0,7.0,91,0.00,,,0.00,VWS V14.01,2013-11-29 10:21:00,
2013-11-29 05:26:00,21.3,19.1,30.51,West,277,0.0,7.0,91,0.00,,,0.00,VWS V14.01,2013-11-29 10:26:00,
2013-11-29 05:31:00,21.3,19.1,30.51,West,277,0.0,7.0,91,0.00,,,0.00,VWS V14.01,2013-11-29 10:31:00,
2013-11-29 05:36:00,21.1,18.9,30.51,West,277,0.0,7.0,91,0.00,,,0.00,VWS V14.01,2013-11-29 10:36:00,
2013-11-29 05:41:00,21.1,18.9,30.51,West,277,0.0,7.0,91,0.00,,,0.00,VWS V14.01,2013-11-29 10:41:00,
2013-11-29 05:46:00,21.1,18.9,30.51,West,277,0.0,7.0,91,0.00,,,0.00,VWS V14.01,2013-11-29 10:46:00,
2013-11-29 05:51:00,21.1,18.9,30.52,West,277,0.0,7.0,91,0.00,,,0.00,VWS V14.01,2013-11-29 10:51:00,
2013-11-29 05:56:00,21.1,18.9,30.52,West,277,0.0,7.0,91,0.00,,,0.00,VWS V14.01,2013-11-29 10:56:00,
2013-11-29 06:01:00,21.1,18.9,30.52,West,277,0.0,7.0,91,0.00,,,0.00,VWS V14.01,2013-11-29 11:01:00,
2013-11-29 06:06:00,21.1,18.6,30.52,West,277,0.0,7.0,90,0.00,,,0.00,VWS V14.01,2013-11-29 11:06:00,
2013-11-29 06:11:00,21.1,18.6,30.52,West,277,0.0,7.0,90,0.00,,,0.00,VWS V14.01,2013-11-29 11:11:00,
2013-11-29 06:16:00,21.0,18.5,30.52,West,277,0.0,7.0,90,0.00,,,0.00,VWS V14.01,2013-11-29 11:16:00,
2013-11-29 06:21:00,21.0,18.5,30.53,West,277,0.0,7.0,90,0.00,,,0.00,VWS V14.01,2013-11-29 11:21:00,
2013-11-29 06:26:00,21.0,18.5,30.53,West,277,0.0,7.0,90,0.00,,,0.00,VWS V14.01,2013-11-29 11:26:00,
2013-11-29 06:31:00,21.0,18.5,30.53,West,277,0.0,7.0,90,0.00,,,0.00,VWS V14.01,2013-11-29 11:31:00,
2013-11-29 06:36:00,20.8,18.3,30.53,West,277,0.0,7.0,90,0.00,,,0.00,VWS V14.01,2013-11-29 11:36:00,
2013-11-29 06:41:00,20.8,18.3,30.53,West,277,0.0,7.0,90,0.00,,,0.00,VWS V14.01,2013-11-29 11:41:00,
2013-11-29 06:46:00,20.8,18.3,30.53,West,277,0.0,7.0,90,0.00,,,0.00,VWS V14.01,2013-11-29 11:46:00,
2013-11-29 06:52:00,20.6,18.1,30.54,West,277,0.0,7.0,90,0.00,,,0.00,VWS V14.01,2013-11-29 11:52:00,
2013-11-29 06:57:00,20.6,18.1,30.54,West,277,0.0,7.0,90,0.00,,,0.00,VWS V14.01,2013-11-29 11:57:00,
2013-11-29 07:02:00,20.6,18.4,30.54,West,277,0.0,7.0,91,0.00,,,0.00,VWS V14.01,2013-11-29 12:02:00,
2013-11-29 07:07:00,20.6,18.4,30.55,West,278,0.0,7.0,91,0.00,,,0.00,VWS V14.01,2013-11-29 12:07:00,
2013-11-29 07:12:00,20.6,18.4,30.55,West,277,0.0,7.0,91,0.00,,,0.00,VWS V14.01,2013-11-29 12:12:00,
2013-11-29 07:17:00,20.6,18.4,30.56,West,277,0.0,7.0,91,0.00,,,0.00,VWS V14.01,2013-11-29 12:17:00,
2013-11-29 07:22:00,20.6,18.4,30.56,West,277,0.0,7.0,91,0.00,,,0.00,VWS V14.01,2013-11-29 12:22:00,
2013-11-29 07:27:00,20.8,18.6,30.56,West,277,0.0,7.0,91,0.00,,,0.00,VWS V14.01,2013-11-29 12:27:00,
2013-11-29 07:32:00,21.0,19.0,30.57,West,277,0.0,7.0,92,0.00,,,0.00,VWS V14.01,2013-11-29 12:32:00,
2013-11-29 07:37:00,21.0,18.8,30.57,West,277,0.0,7.0,91,0.00,,,0.00,VWS V14.01,2013-11-29 12:37:00,
2013-11-29 07:42:00,21.0,18.8,30.57,West,277,0.0,7.0,91,0.00,,,0.00,VWS V14.01,2013-11-29 12:42:00,
2013-11-29 07:47:00,21.0,18.8,30.57,West,277,0.0,7.0,91,0.00,,,0.00,VWS V14.01,2013-11-29 12:47:00,
2013-11-29 07:52:00,21.0,18.8,30.57,West,277,0.0,7.0,91,0.00,,,0.00,VWS V14.01,2013-11-29 12:52:00,
2013-11-29 07:57:00,21.0,18.8,30.57,West,277,0.0,7.0,91,0.00,,,0.00,VWS V14.01,2013-11-29 12:57:00,
2013-11-29 08:02:00,21.1,18.9,30.57,West,277,0.0,7.0,91,0.00,,,0.00,VWS V14.01,2013-11-29 13:02:00,
2013-11-29 08:07:00,21.1,18.9,30.57,West,277,0.0,7.0,91,0.00,,,0.00,VWS V14.01,2013-11-29 13:07:00,
2013-11-29 08:12:00,21.3,19.1,30.57,West,277,0.0,7.0,91,0.00,,,0.00,VWS V14.01,2013-11-29 13:12:00,
2013-11-29 08:17:00,21.4,19.2,30.58,West,277,0.0,7.0,91,0.00,,,0.00,VWS V14.01,2013-11-29 13:17:00,
2013-11-29 08:22:00,21.4,19.2,30.58,West,277,0.0,7.0,91,0.00,,,0.00,VWS V14.01,2013-11-29 13:22:00,
2013-11-29 08:27:00,21.4,19.2,30.58,West,277,0.0,7.0,91,0.00,,,0.00,VWS V14.01,2013-11-29 13:27:00,
2013-11-29 08:33:00,21.6,19.4,30.59,West,277,0.0,7.0,91,0.00,,,0.00,VWS V14.01,2013-11-29 13:33:00,
2013-11-29 08:38:00,21.9,19.9,30.59,West,277,0.0,7.0,92,0.00,,,0.00,VWS V14.01,2013-11-29 13:38:00,
2013-11-29 08:43:00,22.2,20.2,30.59,West,277,0.0,7.0,92,0.00,,,0.00,VWS V14.01,2013-11-29 13:43:00,
2013-11-29 08:48:00,22.5,20.5,30.58,West,277,0.0,7.0,92,0.00,,,0.00,VWS V14.01,2013-11-29 13:48:00,
2013-11-29 08:53:00,22.7,20.7,30.58,West,277,0.0,7.0,92,0.00,,,0.00,VWS V14.01,2013-11-29 13:53:00,
2013-11-29 08:58:00,23.2,21.2,30.58,West,277,0.0,7.0,92,0.00,,,0.00,VWS V14.01,2013-11-29 13:58:00,
2013-11-29 09:03:00,23.6,21.6,30.58,West,277,0.0,7.0,92,0.00,,,0.00,VWS V14.01,2013-11-29 14:03:00,
2013-11-29 09:08:00,24.2,22.5,30.58,West,277,0.0,7.0,93,0.00,,,0.00,VWS V14.01,2013-11-29 14:08:00,
2013-11-29 09:13:00,24.8,23.1,30.58,West,277,0.0,7.0,93,0.00,,,0.00,VWS V14.01,2013-11-29 14:13:00,
2013-11-29 09:18:00,25.1,23.1,30.59,West,277,0.0,7.0,92,0.00,,,0.00,VWS V14.01,2013-11-29 14:18:00,
2013-11-29 09:23:00,25.6,23.6,30.59,West,277,0.0,7.0,92,0.00,,,0.00,VWS V14.01,2013-11-29 14:23:00,
2013-11-29 09:28:00,26.0,24.0,30.59,West,277,0.0,7.0,92,0.00,,,0.00,VWS V14.01,2013-11-29 14:28:00,
2013-11-29 09:33:00,26.3,24.3,30.58,West,277,0.0,7.0,92,0.00,,,0.00,VWS V14.01,2013-11-29 14:33:00,
2013-11-29 09:38:00,26.6,24.3,30.58,West,277,0.0,7.0,91,0.00,,,0.00,VWS V14.01,2013-11-29 14:38:00,
2013-11-29 09:43:00,27.0,24.5,30.58,West,277,0.0,7.0,90,0.00,,,0.00,VWS V14.01,2013-11-29 14:43:00,
2013-11-29 09:49:00,27.5,24.7,30.59,West,277,0.0,7.0,89,0.00,,,0.00,VWS V14.01,2013-11-29 14:49:00,
2013-11-29 09:54:00,28.1,25.0,30.59,West,277,0.0,7.0,88,0.00,,,0.00,VWS V14.01,2013-11-29 14:54:00,
2013-11-29 09:59:00,28.5,25.1,30.59,West,277,0.0,7.0,87,0.00,,,0.00,VWS V14.01,2013-11-29 14:59:00,
2013-11-29 10:04:00,28.8,25.1,30.59,West,277,0.0,7.0,86,0.00,,,0.00,VWS V14.01,2013-11-29 15:04:00,
2013-11-29 10:09:00,29.3,25.6,30.59,West,277,0.0,7.0,86,0.00,,,0.00,VWS V14.01,2013-11-29 15:09:00,
2013-11-29 10:14:00,29.7,25.8,30.59,West,277,0.0,7.0,85,0.00,,,0.00,VWS V14.01,2013-11-29 15:14:00,
2013-11-29 10:19:00,30.1,25.6,30.58,West,277,0.0,7.0,83,0.00,,,0.00,VWS V14.01,2013-11-29 15:19:00,
2013-11-29 10:24:00,30.4,25.9,30.58,West,277,0.0,7.0,83,0.00,,,0.00,VWS V14.01,2013-11-29 15:24:00,
2013-11-29 10:29:00,30.9,25.8,30.58,West,277,0.0,7.0,81,0.00,,,0.00,VWS V14.01,2013-11-29 15:29:00,
2013-11-29 10:34:00,31.5,26.0,30.58,West,277,0.0,7.0,80,0.00,,,0.00,VWS V14.01,2013-11-29 15:34:00,
2013-11-29 10:39:00,32.1,26.3,30.58,West,277,0.0,7.0,79,0.00,,,0.00,VWS V14.01,2013-11-29 15:39:00,
2013-11-29 10:44:00,32.9,27.1,30.58,West,277,2.0,7.0,79,0.00,,,0.00,VWS V14.01,2013-11-29 15:44:00,
2013-11-29 10:49:00,33.7,27.0,30.58,West,277,0.0,7.0,76,0.00,,,0.00,VWS V14.01,2013-11-29 15:49:00,
2013-11-29 10:54:00,34.4,27.3,30.58,West,278,3.0,7.0,75,0.00,,,0.00,VWS V14.01,2013-11-29 15:54:00,
2013-11-29 10:59:00,34.9,27.1,30.58,West,266,0.0,7.0,73,0.00,,,0.00,VWS V14.01,2013-11-29 15:59:00,
2013-11-29 11:04:00,35.0,26.9,30.57,West,266,0.0,7.0,72,0.00,,,0.00,VWS V14.01,2013-11-29 16:04:00,
2013-11-29 11:09:00,35.6,25.0,30.57,West,266,0.0,7.0,65,0.00,,,0.00,VWS V14.01,2013-11-29 16:09:00,
2013-11-29 11:14:00,36.2,23.7,30.57,West,266,0.0,7.0,60,0.00,,,0.00,VWS V14.01,2013-11-29 16:14:00,
2013-11-29 11:19:00,36.8,22.6,30.57,NNW,337,5.0,7.0,56,0.00,,,0.00,VWS V14.01,2013-11-29 16:19:00,
2013-11-29 11:25:00,36.8,20.8,30.57,NNW,338,0.0,7.0,52,0.00,,,0.00,VWS V14.01,2013-11-29 16:25:00,
2013-11-29 11:30:00,36.9,21.8,30.57,NNW,338,0.0,7.0,54,0.00,,,0.00,VWS V14.01,2013-11-29 16:30:00,
2013-11-29 11:35:00,37.2,21.2,30.56,NNE,22,2.0,7.0,52,0.00,,,0.00,VWS V14.01,2013-11-29 16:35:00,
2013-11-29 11:40:00,37.2,20.8,30.56,WSW,238,0.0,7.0,51,0.00,,,0.00,VWS V14.01,2013-11-29 16:40:00,
2013-11-29 11:45:00,37.6,22.0,30.56,South,178,0.0,7.0,53,0.00,,,0.00,VWS V14.01,2013-11-29 16:45:00,
2013-11-29 11:50:00,37.5,21.0,30.55,South,178,0.0,7.0,51,0.00,,,0.00,VWS V14.01,2013-11-29 16:50:00,
2013-11-29 11:55:00,37.6,22.5,30.55,West,259,2.0,7.0,54,0.00,,,0.00,VWS V14.01,2013-11-29 16:55:00,
2013-11-29 12:00:00,37.8,23.1,30.55,West,259,0.0,7.0,55,0.00,,,0.00,VWS V14.01,2013-11-29 17:00:00,
2013-11-29 12:05:00,38.0,22.0,30.55,NNW,345,2.0,7.0,52,0.00,,,0.00,VWS V14.01,2013-11-29 17:05:00,
2013-11-29 12:10:00,38.2,22.1,30.55,NNW,329,0.0,7.0,52,0.00,,,0.00,VWS V14.01,2013-11-29 17:10:00,
2013-11-29 12:15:00,38.3,21.3,30.55,SSW,212,0.0,7.0,50,0.00,,,0.00,VWS V14.01,2013-11-29 17:15:00,
2013-11-29 12:20:00,38.8,22.7,30.54,West,271,2.0,7.0,52,0.00,,,0.00,VWS V14.01,2013-11-29 17:20:00,
2013-11-29 12:25:00,38.9,22.3,30.54,West,271,2.0,7.0,51,0.00,,,0.00,VWS V14.01,2013-11-29 17:25:00,
2013-11-29 12:30:00,38.9,20.4,30.54,NW,324,3.0,7.0,47,0.00,,,0.00,VWS V14.01,2013-11-29 17:30:00,
2013-11-29 12:35:00,38.9,19.9,30.54,WNW,286,3.0,7.0,46,0.00,,,0.00,VWS V14.01,2013-11-29 17:35:00,
2013-11-29 12:40:00,39.2,21.2,30.54,West,272,0.0,7.0,48,0.00,,,0.00,VWS V14.01,2013-11-29 17:40:00,
2013-11-29 12:45:00,39.5,21.5,30.54,West,272,0.0,7.0,48,0.00,,,0.00,VWS V14.01,2013-11-29 17:45:00,
2013-11-29 12:50:00,40.2,22.1,30.53,West,272,0.0,7.0,48,0.00,,,0.00,VWS V14.01,2013-11-29 17:50:00,
2013-11-29 12:55:00,40.6,21.5,30.53,West,272,0.0,7.0,46,0.00,,,0.00,VWS V14.01,2013-11-29 17:55:00,
2013-11-29 13:01:00,40.9,21.2,30.53,NE,47,0.0,7.0,45,0.00,,,0.00,VWS V14.01,2013-11-29 18:01:00,
2013-11-29 13:06:00,41.2,23.5,30.52,North,355,0.0,7.0,49,0.00,,,0.00,VWS V14.01,2013-11-29 18:06:00,
2013-11-29 13:11:00,41.5,22.3,30.52,WNW,289,1.0,7.0,46,0.00,,,0.00,VWS V14.01,2013-11-29 18:11:00,
2013-11-29 13:16:00,41.6,23.4,30.52,ENE,58,2.0,7.0,48,0.00,,,0.00,VWS V14.01,2013-11-29 18:16:00,
2013-11-29 13:21:00,41.5,22.3,30.51,NE,55,0.0,7.0,46,0.00,,,0.00,VWS V14.01,2013-11-29 18:21:00,
2013-11-29 13:26:00,41.5,21.2,30.51,West,277,0.0,7.0,44,0.00,,,0.00,VWS V14.01,2013-11-29 18:26:00,
2013-11-29 13:31:00,41.9,22.1,30.51,NNW,331,1.0,7.0,45,0.00,,,0.00,VWS V14.01,2013-11-29 18:31:00,
2013-11-29 13:36:00,42.3,24.0,30.51,NW,308,1.0,7.0,48,0.00,,,0.00,VWS V14.01,2013-11-29 18:36:00,
2013-11-29 13:41:00,42.8,22.4,30.51,NW,309,0.0,7.0,44,0.00,,,0.00,VWS V14.01,2013-11-29 18:41:00,
2013-11-29 13:46:00,43.1,24.8,30.51,NW,309,2.0,7.0,48,0.00,,,0.00,VWS V14.01,2013-11-29 18:46:00,
2013-11-29 13:51:00,43.3,22.9,30.50,NW,309,0.0,7.0,44,0.00,,,0.00,VWS V14.01,2013-11-29 18:51:00,
2013-11-29 13:56:00,43.5,21.4,30.50,NW,309,0.0,7.0,41,0.00,,,0.00,VWS V14.01,2013-11-29 18:56:00,
2013-11-29 14:01:00,43.5,22.5,30.50,NW,309,1.0,7.0,43,0.00,,,0.00,VWS V14.01,2013-11-29 19:01:00,
2013-11-29 14:06:00,43.3,22.9,30.50,WNW,290,0.0,7.0,44,0.00,,,0.00,VWS V14.01,2013-11-29 19:06:00,
2013-11-29 14:11:00,43.3,21.8,30.50,WNW,290,1.0,7.0,42,0.00,,,0.00,VWS V14.01,2013-11-29 19:11:00,
2013-11-29 14:16:00,43.3,23.9,30.50,WNW,290,0.0,7.0,46,0.00,,,0.00,VWS V14.01,2013-11-29 19:16:00,
2013-11-29 14:21:00,43.3,22.3,30.50,WNW,290,1.0,7.0,43,0.00,,,0.00,VWS V14.01,2013-11-29 19:21:00,
2013-11-29 14:26:00,43.1,21.0,30.50,NE,36,0.0,7.0,41,0.00,,,0.00,VWS V14.01,2013-11-29 19:26:00,
2013-11-29 14:31:00,43.1,23.7,30.50,NNE,26,1.0,7.0,46,0.00,,,0.00,VWS V14.01,2013-11-29 19:31:00,
2013-11-29 14:37:00,43.1,23.2,30.50,NW,304,0.0,7.0,45,0.00,,,0.00,VWS V14.01,2013-11-29 19:37:00,
2013-11-29 14:42:00,43.5,22.5,30.50,NW,304,0.0,7.0,43,0.00,,,0.00,VWS V14.01,2013-11-29 19:42:00,
2013-11-29 14:47:00,43.6,22.6,30.50,North,355,1.0,7.0,43,0.00,,,0.00,VWS V14.01,2013-11-29 19:47:00,
2013-11-29 14:52:00,43.6,23.7,30.49,NNW,339,1.0,7.0,45,0.00,,,0.00,VWS V14.01,2013-11-29 19:52:00,
2013-11-29 14:57:00,42.9,23.0,30.49,South,171,0.0,7.0,45,0.00,,,0.00,VWS V14.01,2013-11-29 19:57:00,
2013-11-29 15:02:00,42.8,22.4,30.50,NNW,333,0.0,7.0,44,0.00,,,0.00,VWS V14.01,2013-11-29 20:02:00,
2013-11-29 15:07:00,43.3,23.4,30.50,NNW,333,4.0,7.0,45,0.00,,,0.00,VWS V14.01,2013-11-29 20:07:00,
2013-11-29 15:12:00,43.6,23.7,30.50,NW,326,0.0,7.0,45,0.00,,,0.00,VWS V14.01,2013-11-29 20:12:00,
2013-11-29 15:17:00,44.1,25.2,30.49,NNE,19,2.0,7.0,47,0.00,,,0.00,VWS V14.01,2013-11-29 20:17:00,
2013-11-29 15:22:00,44.2,24.8,30.49,NNW,342,2.0,7.0,46,0.00,,,0.00,VWS V14.01,2013-11-29 20:22:00,
2013-11-29 15:27:00,44.2,23.1,30.49,NNW,343,4.0,7.0,43,0.00,,,0.00,VWS V14.01,2013-11-29 20:27:00,
2013-11-29 15:32:00,43.8,24.4,30.49,NNW,331,0.0,7.0,46,0.00,,,0.00,VWS V14.01,2013-11-29 20:32:00,
2013-11-29 15:37:00,43.6,24.7,30.49,WNW,302,1.0,7.0,47,0.00,,,0.00,VWS V14.01,2013-11-29 20:37:00,
2013-11-29 15:42:00,43.6,24.2,30.49,NW,310,0.0,7.0,46,0.00,,,0.00,VWS V14.01,2013-11-29 20:42:00,
2013-11-29 15:47:00,43.8,24.4,30.49,NW,310,0.0,7.0,46,0.00,,,0.00,VWS V14.01,2013-11-29 20:47:00,
2013-11-29 15:52:00,44.1,25.7,30.49,NW,310,1.0,7.0,48,0.00,,,0.00,VWS V14.01,2013-11-29 20:52:00,
2013-11-29 15:57:00,44.1,25.7,30.49,NW,310,0.0,7.0,48,0.00,,,0.00,VWS V14.01,2013-11-29 20:57:00,
2013-11-29 16:03:00,43.9,26.0,30.49,NW,310,0.0,7.0,49,0.00,,,0.00,VWS V14.01,2013-11-29 21:03:00,
2013-11-29 16:08:00,43.3,25.4,30.49,West,275,1.0,7.0,49,0.00,,,0.00,VWS V14.01,2013-11-29 21:08:00,
2013-11-29 16:13:00,43.1,25.3,30.49,West,275,0.0,7.0,49,0.00,,,0.00,VWS V14.01,2013-11-29 21:13:00,
2013-11-29 16:18:00,43.2,24.4,30.49,West,277,1.0,7.0,47,0.00,,,0.00,VWS V14.01,2013-11-29 21:18:00,
2013-11-29 16:23:00,42.8,25.9,30.49,West,277,0.0,7.0,51,0.00,,,0.00,VWS V14.01,2013-11-29 21:23:00,
2013-11-29 16:28:00,42.1,25.8,30.49,West,277,0.0,7.0,52,0.00,,,0.00,VWS V14.01,2013-11-29 21:28:00,
2013-11-29 16:33:00,41.8,25.9,30.50,West,277,0.0,7.0,53,0.00,,,0.00,VWS V14.01,2013-11-29 21:33:00,
2013-11-29 16:38:00,41.2,25.4,30.50,West,277,0.0,7.0,53,0.00,,,0.00,VWS V14.01,2013-11-29 21:38:00,
2013-11-29 16:43:00,40.6,25.7,30.50,West,277,0.0,7.0,55,0.00,,,0.00,VWS V14.01,2013-11-29 21:43:00,
2013-11-29 16:48:00,40.5,29.3,30.50,West,277,0.0,7.0,64,0.00,,,0.00,VWS V14.01,2013-11-29 21:48:00,
2013-11-29 16:53:00,39.9,27.6,30.50,West,277,0.0,7.0,61,0.00,,,0.00,VWS V14.01,2013-11-29 21:53:00,
2013-11-29 16:58:00,39.5,28.0,30.50,West,277,0.0,7.0,63,0.00,,,0.00,VWS V14.01,2013-11-29 21:58:00,
2013-11-29 17:04:00,39.1,28.3,30.50,West,277,0.0,7.0,65,0.00,,,0.00,VWS V14.01,2013-11-29 22:04:00,
2013-11-29 17:09:00,38.3,25.6,30.50,West,277,0.0,7.0,60,0.00,,,0.00,VWS V14.01,2013-11-29 22:09:00,
2013-11-29 17:14:00,37.8,25.6,30.50,West,277,0.0,7.0,61,0.00,,,0.00,VWS V14.01,2013-11-29 22:14:00,
2013-11-29 17:19:00,37.2,25.4,30.51,West,277,0.0,7.0,62,0.00,,,0.00,VWS V14.01,2013-11-29 22:19:00,
2013-11-29 17:24:00,36.3,25.7,30.51,West,277,0.0,7.0,65,0.00,,,0.00,VWS V14.01,2013-11-29 22:24:00,
2013-11-29 17:29:00,35.5,25.3,30.51,West,277,0.0,7.0,66,0.00,,,0.00,VWS V14.01,2013-11-29 22:29:00,
2013-11-29 17:34:00,34.9,25.4,30.51,West,277,0.0,7.0,68,0.00,,,0.00,VWS V14.01,2013-11-29 22:34:00,
2013-11-29 17:39:00,34.3,25.5,30.51,West,277,0.0,7.0,70,0.00,,,0.00,VWS V14.01,2013-11-29 22:39:00,
2013-11-29 17:44:00,33.8,25.7,30.51,West,277,0.0,7.0,72,0.00,,,0.00,VWS V14.01,2013-11-29 22:44:00,
2013-11-29 17:49:00,33.7,26.0,30.52,West,277,0.0,7.0,73,0.00,,,0.00,VWS V14.01,2013-11-29 22:49:00,
2013-11-29 17:54:00,33.2,25.2,30.52,West,277,0.0,7.0,72,0.00,,,0.00,VWS V14.01,2013-11-29 22:54:00,
2013-11-29 17:59:00,32.8,25.4,30.52,West,277,0.0,7.0,74,0.00,,,0.00,VWS V14.01,2013-11-29 22:59:00,
2013-11-29 18:04:00,32.5,25.5,30.52,West,277,0.0,7.0,75,0.00,,,0.00,VWS V14.01,2013-11-29 23:04:00,
2013-11-29 18:09:00,32.4,26.0,30.52,West,277,0.0,7.0,77,0.00,,,0.00,VWS V14.01,2013-11-29 23:09:00,
2013-11-29 18:14:00,32.1,25.7,30.52,West,277,0.0,7.0,77,0.00,,,0.00,VWS V14.01,2013-11-29 23:14:00,
2013-11-29 18:20:00,31.8,25.4,30.52,West,277,0.0,7.0,77,0.00,,,0.00,VWS V14.01,2013-11-29 23:20:00,
2013-11-29 18:25:00,31.5,25.1,30.52,West,277,0.0,7.0,77,0.00,,,0.00,VWS V14.01,2013-11-29 23:25:00,
2013-11-29 18:30:00,31.2,24.8,30.52,West,277,0.0,7.0,77,0.00,,,0.00,VWS V14.01,2013-11-29 23:30:00,
2013-11-29 18:35:00,30.9,24.9,30.52,West,277,0.0,7.0,78,0.00,,,0.00,VWS V14.01,2013-11-29 23:35:00,
2013-11-29 18:40:00,30.7,25.0,30.52,West,277,0.0,7.0,79,0.00,,,0.00,VWS V14.01,2013-11-29 23:40:00,
2013-11-29 18:45:00,30.4,24.7,30.52,West,277,0.0,7.0,79,0.00,,,0.00,VWS V14.01,2013-11-29 23:45:00,
2013-11-29 18:50:00,30.3,24.6,30.53,West,277,0.0,7.0,79,0.00,,,0.00,VWS V14.01,2013-11-29 23:50:00,
2013-11-29 18:55:00,30.1,24.7,30.53,West,277,0.0,7.0,80,0.00,,,0.00,VWS V14.01,2013-11-29 23:55:00,
2013-11-29 19:00:00,30.1,24.7,30.53,West,277,0.0,7.0,80,0.00,,,0.00,VWS V14.01,2013-11-30 00:00:00,
2013-11-29 19:05:00,30.0,24.6,30.53,West,277,0.0,7.0,80,0.00,,,0.00,VWS V14.01,2013-11-30 00:05:00,
2013-11-29 19:10:00,30.0,24.9,30.53,West,277,0.0,7.0,81,0.00,,,0.00,VWS V14.01,2013-11-30 00:10:00,
2013-11-29 19:15:00,30.0,24.6,30.53,West,277,0.0,7.0,80,0.00,,,0.00,VWS V14.01,2013-11-30 00:15:00,
2013-11-29 19:20:00,29.8,24.4,30.53,West,277,0.0,7.0,80,0.00,,,0.00,VWS V14.01,2013-11-30 00:20:00,
2013-11-29 19:25:00,29.8,24.4,30.53,West,277,0.0,7.0,80,0.00,,,0.00,VWS V14.01,2013-11-30 00:25:00,
2013-11-29 19:30:00,29.7,24.3,30.53,West,277,0.0,7.0,80,0.00,,,0.00,VWS V14.01,2013-11-30 00:30:00,
2013-11-29 19:35:00,29.7,24.3,30.53,West,277,0.0,7.0,80,0.00,,,0.00,VWS V14.01,2013-11-30 00:35:00,
2013-11-29 19:40:00,29.7,24.6,30.53,West,277,0.0,7.0,81,0.00,,,0.00,VWS V14.01,2013-11-30 00:40:00,
2013-11-29 19:46:00,29.5,24.1,30.53,West,277,0.0,7.0,80,0.00,,,0.00,VWS V14.01,2013-11-30 00:46:00,
2013-11-29 19:51:00,29.5,24.4,30.53,West,277,0.0,7.0,81,0.00,,,0.00,VWS V14.01,2013-11-30 00:51:00,
2013-11-29 19:56:00,29.5,24.4,30.53,West,277,0.0,7.0,81,0.00,,,0.00,VWS V14.01,2013-11-30 00:56:00,
2013-11-29 20:01:00,29.5,24.4,30.53,West,277,0.0,7.0,81,0.00,,,0.00,VWS V14.01,2013-11-30 01:01:00,
2013-11-29 20:06:00,29.4,24.3,30.53,West,277,0.0,7.0,81,0.00,,,0.00,VWS V14.01,2013-11-30 01:06:00,
2013-11-29 20:11:00,29.4,24.3,30.53,West,277,0.0,7.0,81,0.00,,,0.00,VWS V14.01,2013-11-30 01:11:00,
2013-11-29 20:16:00,29.3,24.2,30.53,West,277,0.0,7.0,81,0.00,,,0.00,VWS V14.01,2013-11-30 01:16:00,
2013-11-29 20:21:00,29.3,24.2,30.52,West,277,0.0,7.0,81,0.00,,,0.00,VWS V14.01,2013-11-30 01:21:00,
2013-11-29 20:26:00,29.3,24.2,30.52,West,277,0.0,7.0,81,0.00,,,0.00,VWS V14.01,2013-11-30 01:26:00,
2013-11-29 20:31:00,29.3,24.8,30.52,West,277,0.0,7.0,83,0.00,,,0.00,VWS V14.01,2013-11-30 01:31:00,
2013-11-29 20:36:00,29.4,25.2,30.52,West,277,0.0,7.0,84,0.00,,,0.00,VWS V14.01,2013-11-30 01:36:00,
2013-11-29 20:41:00,29.4,25.2,30.52,West,277,0.0,7.0,84,0.00,,,0.00,VWS V14.01,2013-11-30 01:41:00,
2013-11-29 20:46:00,29.5,25.6,30.52,West,277,0.0,7.0,85,0.00,,,0.00,VWS V14.01,2013-11-30 01:46:00,
2013-11-29 20:51:00,29.5,25.6,30.52,West,277,0.0,7.0,85,0.00,,,0.00,VWS V14.01,2013-11-30 01:51:00,
2013-11-29 20:56:00,29.5,25.6,30.52,West,277,0.0,7.0,85,0.00,,,0.00,VWS V14.01,2013-11-30 01:56:00,
2013-11-29 21:01:00,29.4,25.2,30.52,West,277,0.0,7.0,84,0.00,,,0.00,VWS V14.01,2013-11-30 02:01:00,
2013-11-29 21:06:00,29.4,25.2,30.52,West,277,0.0,7.0,84,0.00,,,0.00,VWS V14.01,2013-11-30 02:06:00,
2013-11-29 21:11:00,29.4,25.2,30.52,West,277,0.0,7.0,84,0.00,,,0.00,VWS V14.01,2013-11-30 02:11:00,
2013-11-29 21:16:00,29.5,25.3,30.52,West,277,0.0,7.0,84,0.00,,,0.00,VWS V14.01,2013-11-30 02:16:00,
2013-11-29 21:21:00,29.5,25.3,30.51,West,277,0.0,7.0,84,0.00,,,0.00,VWS V14.01,2013-11-30 02:21:00,
2013-11-29 21:26:00,29.7,25.5,30.51,West,277,0.0,7.0,84,0.00,,,0.00,VWS V14.01,2013-11-30 02:26:00,
2013-11-29 21:32:00,29.8,25.3,30.51,West,277,0.0,7.0,83,0.00,,,0.00,VWS V14.01,2013-11-30 02:32:00,
2013-11-29 21:37:00,29.8,25.3,30.51,West,277,0.0,7.0,83,0.00,,,0.00,VWS V14.01,2013-11-30 02:37:00,
2013-11-29 21:42:00,30.0,25.5,30.51,West,277,0.0,7.0,83,0.00,,,0.00,VWS V14.01,2013-11-30 02:42:00,
2013-11-29 21:47:00,30.0,25.5,30.51,West,277,0.0,7.0,83,0.00,,,0.00,VWS V14.01,2013-11-30 02:47:00,
2013-11-29 21:52:00,30.0,25.5,30.51,West,277,0.0,7.0,83,0.00,,,0.00,VWS V14.01,2013-11-30 02:52:00,
2013-11-29 21:57:00,29.8,25.3,30.51,West,277,0.0,7.0,83,0.00,,,0.00,VWS V14.01,2013-11-30 02:57:00,
2013-11-29 22:02:00,30.0,25.5,30.51,West,277,0.0,7.0,83,0.00,,,0.00,VWS V14.01,2013-11-30 03:02:00,
2013-11-29 22:07:00,30.0,25.5,30.51,West,277,0.0,7.0,83,0.00,,,0.00,VWS V14.01,2013-11-30 03:07:00,
2013-11-29 22:12:00,30.1,25.6,30.51,West,277,0.0,7.0,83,0.00,,,0.00,VWS V14.01,2013-11-30 03:12:00,
2013-11-29 22:17:00,30.3,25.5,30.49,West,277,0.0,7.0,82,0.00,,,0.00,VWS V14.01,2013-11-30 03:17:00,
2013-11-29 22:22:00,30.4,25.6,30.49,West,277,0.0,7.0,82,0.00,,,0.00,VWS V14.01,2013-11-30 03:22:00,
2013-11-29 22:27:00,30.6,25.5,30.49,West,277,0.0,7.0,81,0.00,,,0.00,VWS V14.01,2013-11-30 03:27:00,
2013-11-29 22:32:00,31.0,25.3,30.49,West,277,0.0,7.0,79,0.00,,,0.00,VWS V14.01,2013-11-30 03:32:00,
2013-11-29 22:37:00,31.3,25.2,30.49,West,277,0.0,7.0,78,0.00,,,0.00,VWS V14.01,2013-11-30 03:37:00,
2013-11-29 22:42:00,31.6,24.9,30.49,West,277,0.0,7.0,76,0.00,,,0.00,VWS V14.01,2013-11-30 03:42:00,
2013-11-29 22:47:00,31.9,25.2,30.49,West,277,0.0,7.0,76,0.00,,,0.00,VWS V14.01,2013-11-30 03:47:00,
2013-11-29 22:52:00,31.9,24.2,30.49,West,277,2.0,7.0,73,0.00,,,0.00,VWS V14.01,2013-11-30 03:52:00,
2013-11-29 22:57:00,32.2,24.9,30.49,WNW,294,2.0,7.0,74,0.00,,,0.00,VWS V14.01,2013-11-30 03:57:00,
2013-11-29 23:02:00,32.7,25.0,30.48,SSW,212,0.0,7.0,73,0.00,,,0.00,VWS V14.01,2013-11-30 04:02:00,
2013-11-29 23:07:00,33.2,23.8,30.48,ENE,64,1.0,7.0,68,0.00,,,0.00,VWS V14.01,2013-11-30 04:07:00,
2013-11-29 23:12:00,33.2,24.1,30.48,ENE,64,0.0,7.0,69,0.00,,,0.00,VWS V14.01,2013-11-30 04:12:00,
2013-11-29 23:18:00,33.4,23.6,30.47,NE,49,1.0,7.0,67,0.00,,,0.00,VWS V14.01,2013-11-30 04:18:00,
2013-11-29 23:23:00,33.7,23.9,30.47,NE,49,0.0,7.0,67,0.00,,,0.00,VWS V14.01,2013-11-30 04:23:00,
2013-11-29 23:28:00,33.8,23.7,30.47,NE,49,0.0,7.0,66,0.00,,,0.00,VWS V14.01,2013-11-30 04:28:00,
2013-11-29 23:33:00,33.7,24.3,30.47,NNE,30,0.0,7.0,68,0.00,,,0.00,VWS V14.01,2013-11-30 04:33:00,
2013-11-29 23:38:00,33.4,23.6,30.47,NNE,30,1.0,7.0,67,0.00,,,0.00,VWS V14.01,2013-11-30 04:38:00,
2013-11-29 23:43:00,33.2,24.1,30.47,NNE,30,0.0,7.0,69,0.00,,,0.00,VWS V14.01,2013-11-30 04:43:00,
2013-11-29 23:48:00,33.1,24.4,30.47,NNE,30,0.0,7.0,70,0.00,,,0.00,VWS V14.01,2013-11-30 04:48:00,
2013-11-29 23:53:00,32.8,23.8,30.47,NNE,30,0.0,7.0,69,0.00,,,0.00,VWS V14.01,2013-11-30 04:53:00,
2013-11-29 23:58:00,32.5,24.2,30.47,NNE,30,0.0,7.0,71,0.00,,,0.00,VWS V14.01,2013-11-30 04:58:00,